����������;��������(kVARh)
2017-06-19 00:00;6,1
2017-06-19 00:15;7,15
2017-06-19 00:30;6,5
2017-06-19 00:45;13,2
2017-06-19 01:00;16,9
2017-06-19 01:15;16,1
2017-06-19 01:30;10,35
2017-06-19 01:45;13,55
2017-06-19 02:00;12,4
2017-06-19 02:15;11,05
2017-06-19 02:30;9,4
2017-06-19 02:45;12,35
2017-06-19 03:00;13,7
2017-06-19 03:15;9,35
2017-06-19 03:30;11,35
2017-06-19 03:45;11,1
2017-06-19 04:00;11,95
2017-06-19 04:15;10,05
2017-06-19 04:30;12,3
2017-06-19 04:45;10,85
2017-06-19 05:00;10,55
2017-06-19 05:15;11,15
2017-06-19 05:30;11,25
2017-06-19 05:45;13,3
2017-06-19 06:00;13
2017-06-19 06:15;13,25
2017-06-19 06:30;11,15
2017-06-19 06:45;10,6
2017-06-19 07:00;15,45
2017-06-19 07:15;21,25
2017-06-19 07:30;44,8
2017-06-19 07:45;23,95
2017-06-19 08:00;23,85
2017-06-19 08:15;29,2
2017-06-19 08:30;28,4
2017-06-19 08:45;27,9
2017-06-19 09:00;34,35
2017-06-19 09:15;30,65
2017-06-19 09:30;43,35
2017-06-19 09:45;46,5
2017-06-19 10:00;42,2
2017-06-19 10:15;48,15
2017-06-19 10:30;50,4
2017-06-19 10:45;78,45
2017-06-19 11:00;85,5
2017-06-19 11:15;70,7
2017-06-19 11:30;72,7
2017-06-19 11:45;75,15
2017-06-19 12:00;74,9
2017-06-19 12:15;76,1
2017-06-19 12:30;78,7
2017-06-19 12:45;75,55
2017-06-19 13:00;73,75
2017-06-19 13:15;77,5
2017-06-19 13:30;76,45
2017-06-19 13:45;77,2
2017-06-19 14:00;79,3
2017-06-19 14:15;74,95
2017-06-19 14:30;76,65
2017-06-19 14:45;75,95
2017-06-19 15:00;77,95
2017-06-19 15:15;77,85
2017-06-19 15:30;78,4
2017-06-19 15:45;75,55
2017-06-19 16:00;74,75
2017-06-19 16:15;51,35
2017-06-19 16:30;47,45
2017-06-19 16:45;50,2
2017-06-19 17:00;43,3
2017-06-19 17:15;41,4
2017-06-19 17:30;40,8
2017-06-19 17:45;36,8
2017-06-19 18:00;34,65
2017-06-19 18:15;35,3
2017-06-19 18:30;30,25
2017-06-19 18:45;27,7
2017-06-19 19:00;26,65
2017-06-19 19:15;22
2017-06-19 19:30;21,65
2017-06-19 19:45;21,6
2017-06-19 20:00;16,05
2017-06-19 20:15;16,45
2017-06-19 20:30;16,1
2017-06-19 20:45;14,75
2017-06-19 21:00;14,85
2017-06-19 21:15;13,55
2017-06-19 21:30;16,95
2017-06-19 21:45;18,7
2017-06-19 22:00;18,35
2017-06-19 22:15;20,5
2017-06-19 22:30;21,65
2017-06-19 22:45;20,65
2017-06-19 23:00;20,45
2017-06-19 23:15;19,5
2017-06-19 23:30;17,6
2017-06-19 23:45;11,35
2017-06-20 00:00;9,65
2017-06-20 00:15;12,4
2017-06-20 00:30;12,15
2017-06-20 00:45;13,35
2017-06-20 01:00;17,85
2017-06-20 01:15;14,3
2017-06-20 01:30;12,85
2017-06-20 01:45;12,4
2017-06-20 02:00;11,65
2017-06-20 02:15;10,85
2017-06-20 02:30;12,7
2017-06-20 02:45;13,95
2017-06-20 03:00;7,1
2017-06-20 03:15;4,15
2017-06-20 03:30;6,3
2017-06-20 03:45;5,35
2017-06-20 04:00;5,4
2017-06-20 04:15;5,6
2017-06-20 04:30;5,05
2017-06-20 04:45;3,45
2017-06-20 05:00;1,85
2017-06-20 05:15;2,95
2017-06-20 05:30;3,25
2017-06-20 05:45;4,1
2017-06-20 06:00;3,4
2017-06-20 06:15;2,4
2017-06-20 06:30;6,8
2017-06-20 06:45;11,35
2017-06-20 07:00;5,45
2017-06-20 07:15;7,85
2017-06-20 07:30;37,85
2017-06-20 07:45;8,85
2017-06-20 08:00;9,85
2017-06-20 08:15;14
2017-06-20 08:30;16,7
2017-06-20 08:45;24,3
2017-06-20 09:00;26,9
2017-06-20 09:15;23,1
2017-06-20 09:30;27,95
2017-06-20 09:45;32,15
2017-06-20 10:00;30,65
2017-06-20 10:15;47,45
2017-06-20 10:30;47,25
2017-06-20 10:45;77,35
2017-06-20 11:00;73,8
2017-06-20 11:15;65,4
2017-06-20 11:30;57,5
2017-06-20 11:45;63,65
2017-06-20 12:00;66,05
2017-06-20 12:15;66,1
2017-06-20 12:30;65,6
2017-06-20 12:45;61,95
2017-06-20 13:00;64,35
2017-06-20 13:15;67,85
2017-06-20 13:30;64,85
2017-06-20 13:45;60,8
2017-06-20 14:00;60,7
2017-06-20 14:15;64,9
2017-06-20 14:30;66,75
2017-06-20 14:45;66,75
2017-06-20 15:00;63,4
2017-06-20 15:15;61,15
2017-06-20 15:30;61,45
2017-06-20 15:45;60,3
2017-06-20 16:00;54,9
2017-06-20 16:15;46,2
2017-06-20 16:30;47,6
2017-06-20 16:45;45,55
2017-06-20 17:00;41,45
2017-06-20 17:15;37,15
2017-06-20 17:30;35,2
2017-06-20 17:45;33,15
2017-06-20 18:00;28,9
2017-06-20 18:15;25,95
2017-06-20 18:30;24,65
2017-06-20 18:45;20,25
2017-06-20 19:00;18,2
2017-06-20 19:15;14,4
2017-06-20 19:30;14,4
2017-06-20 19:45;15,3
2017-06-20 20:00;12,45
2017-06-20 20:15;8,65
2017-06-20 20:30;12,6
2017-06-20 20:45;12,7
2017-06-20 21:00;15,25
2017-06-20 21:15;15,2
2017-06-20 21:30;16,6
2017-06-20 21:45;15,5
2017-06-20 22:00;15,6
2017-06-20 22:15;19,5
2017-06-20 22:30;17
2017-06-20 22:45;18,1
2017-06-20 23:00;20,05
2017-06-20 23:15;20,95
2017-06-20 23:30;16,2
2017-06-20 23:45;15,9
2017-06-21 00:00;4,25
2017-06-21 00:15;0,4
2017-06-21 00:30;0,6
2017-06-21 00:45;0,55
2017-06-21 01:00;0,65
2017-06-21 01:15;0,4
2017-06-21 01:30;0,25
2017-06-21 01:45;0,2
2017-06-21 02:00;0,15
2017-06-21 02:15;0,3
2017-06-21 02:30;0,05
2017-06-21 02:45;0,1
2017-06-21 03:00;1,05
2017-06-21 03:15;1,05
2017-06-21 03:30;0,85
2017-06-21 03:45;0,65
2017-06-21 04:00;0,7
2017-06-21 04:15;0,7
2017-06-21 04:30;1,7
2017-06-21 04:45;0,8
2017-06-21 05:00;1,5
2017-06-21 05:15;2,45
2017-06-21 05:30;2,75
2017-06-21 05:45;3,05
2017-06-21 06:00;2,1
2017-06-21 06:15;2,85
2017-06-21 06:30;5,5
2017-06-21 06:45;11,95
2017-06-21 07:00;9,05
2017-06-21 07:15;18,6
2017-06-21 07:30;53,55
2017-06-21 07:45;29,4
2017-06-21 08:00;27,5
2017-06-21 08:15;48,65
2017-06-21 08:30;50,35
2017-06-21 08:45;32,5
2017-06-21 09:00;34,3
2017-06-21 09:15;40,35
2017-06-21 09:30;47,65
2017-06-21 09:45;48,3
2017-06-21 10:00;45,9
2017-06-21 10:15;45,9
2017-06-21 10:30;52,8
2017-06-21 10:45;54,55
2017-06-21 11:00;59,1
2017-06-21 11:15;54,8
2017-06-21 11:30;59,4
2017-06-21 11:45;62,8
2017-06-21 12:00;63
2017-06-21 12:15;60,9
2017-06-21 12:30;62,15
2017-06-21 12:45;62,7
2017-06-21 13:00;64,85
2017-06-21 13:15;68,5
2017-06-21 13:30;70,7
2017-06-21 13:45;69,5
2017-06-21 14:00;67,5
2017-06-21 14:15;68,8
2017-06-21 14:30;71,05
2017-06-21 14:45;71,8
2017-06-21 15:00;72,65
2017-06-21 15:15;71,8
2017-06-21 15:30;71,9
2017-06-21 15:45;69,7
2017-06-21 16:00;65,75
2017-06-21 16:15;44,6
2017-06-21 16:30;46
2017-06-21 16:45;44,4
2017-06-21 17:00;41,55
2017-06-21 17:15;43,55
2017-06-21 17:30;38,15
2017-06-21 17:45;36,15
2017-06-21 18:00;35,5
2017-06-21 18:15;35,5
2017-06-21 18:30;38,4
2017-06-21 18:45;37,7
2017-06-21 19:00;32,75
2017-06-21 19:15;30,3
2017-06-21 19:30;33,8
2017-06-21 19:45;31,85
2017-06-21 20:00;29,2
2017-06-21 20:15;25,9
2017-06-21 20:30;25,6
2017-06-21 20:45;25,75
2017-06-21 21:00;21,2
2017-06-21 21:15;17,05
2017-06-21 21:30;19,65
2017-06-21 21:45;20,55
2017-06-21 22:00;15,9
2017-06-21 22:15;14,3
2017-06-21 22:30;13,65
2017-06-21 22:45;13,65
2017-06-21 23:00;10,45
2017-06-21 23:15;10,4
2017-06-21 23:30;10,4
2017-06-21 23:45;9,3
2017-06-22 00:00;10,3
2017-06-22 00:15;3,8
2017-06-22 00:30;5,25
2017-06-22 00:45;8,85
2017-06-22 01:00;4,55
2017-06-22 01:15;2,15
2017-06-22 01:30;1,75
2017-06-22 01:45;0,35
2017-06-22 02:00;0
2017-06-22 02:15;0,25
2017-06-22 02:30;5,15
2017-06-22 02:45;5,2
2017-06-22 03:00;5,05
2017-06-22 03:15;7
2017-06-22 03:30;6,35
2017-06-22 03:45;6,5
2017-06-22 04:00;6
2017-06-22 04:15;5,6
2017-06-22 04:30;5,7
2017-06-22 04:45;6,35
2017-06-22 05:00;5,65
2017-06-22 05:15;7,1
2017-06-22 05:30;8,75
2017-06-22 05:45;9,55
2017-06-22 06:00;8,1
2017-06-22 06:15;8,3
2017-06-22 06:30;8,95
2017-06-22 06:45;19,4
2017-06-22 07:00;20,55
2017-06-22 07:15;21,1
2017-06-22 07:30;50,1
2017-06-22 07:45;33,05
2017-06-22 08:00;35,6
2017-06-22 08:15;58,4
2017-06-22 08:30;60,15
2017-06-22 08:45;45,05
2017-06-22 09:00;42,25
2017-06-22 09:15;47,6
2017-06-22 09:30;55,95
2017-06-22 09:45;51,25
2017-06-22 10:00;50,2
2017-06-22 10:15;54,4
2017-06-22 10:30;61,25
2017-06-22 10:45;65,35
2017-06-22 11:00;65,25
2017-06-22 11:15;70,75
2017-06-22 11:30;74,85
2017-06-22 11:45;69,15
2017-06-22 12:00;69,2
2017-06-22 12:15;75,75
2017-06-22 12:30;76,9
2017-06-22 12:45;71,35
2017-06-22 13:00;71,15
2017-06-22 13:15;79,85
2017-06-22 13:30;78
2017-06-22 13:45;79,6
2017-06-22 14:00;79,1
2017-06-22 14:15;78
2017-06-22 14:30;79,75
2017-06-22 14:45;80,25
2017-06-22 15:00;78,7
2017-06-22 15:15;76,75
2017-06-22 15:30;74,3
2017-06-22 15:45;71,75
2017-06-22 16:00;70,45
2017-06-22 16:15;53,05
2017-06-22 16:30;51,7
2017-06-22 16:45;48,65
2017-06-22 17:00;49,3
2017-06-22 17:15;47,9
2017-06-22 17:30;46,55
2017-06-22 17:45;44,4
2017-06-22 18:00;37,7
2017-06-22 18:15;38,9
2017-06-22 18:30;34,1
2017-06-22 18:45;35,2
2017-06-22 19:00;30,65
2017-06-22 19:15;25,7
2017-06-22 19:30;25,55
2017-06-22 19:45;24,3
2017-06-22 20:00;22,8
2017-06-22 20:15;26,4
2017-06-22 20:30;26,35
2017-06-22 20:45;28,35
2017-06-22 21:00;28,15
2017-06-22 21:15;25,9
2017-06-22 21:30;25,65
2017-06-22 21:45;24,6
2017-06-22 22:00;24,55
2017-06-22 22:15;22,65
2017-06-22 22:30;21,75
2017-06-22 22:45;18,45
2017-06-22 23:00;18,55
2017-06-22 23:15;19,3
2017-06-22 23:30;19,2
2017-06-22 23:45;16,2
2017-06-23 00:00;14,7
2017-06-23 00:15;16,35
2017-06-23 00:30;16,55
2017-06-23 00:45;16,75
2017-06-23 01:00;15,35
2017-06-23 01:15;4,35
2017-06-23 01:30;3
2017-06-23 01:45;2,8
2017-06-23 02:00;2,7
2017-06-23 02:15;3,75
2017-06-23 02:30;4,1
2017-06-23 02:45;5,55
2017-06-23 03:00;4,95
2017-06-23 03:15;6,45
2017-06-23 03:30;6
2017-06-23 03:45;6,15
2017-06-23 04:00;6,25
2017-06-23 04:15;5,3
2017-06-23 04:30;4,75
2017-06-23 04:45;2,85
2017-06-23 05:00;3,95
2017-06-23 05:15;4,45
2017-06-23 05:30;4,05
2017-06-23 05:45;3,65
2017-06-23 06:00;4
2017-06-23 06:15;3,4
2017-06-23 06:30;4,95
2017-06-23 06:45;9,8
2017-06-23 07:00;16
2017-06-23 07:15;17,5
2017-06-23 07:30;49,45
2017-06-23 07:45;22,05
2017-06-23 08:00;26
2017-06-23 08:15;55,8
2017-06-23 08:30;58,4
2017-06-23 08:45;48,15
2017-06-23 09:00;46,4
2017-06-23 09:15;52,9
2017-06-23 09:30;45,05
2017-06-23 09:45;46,55
2017-06-23 10:00;54,6
2017-06-23 10:15;59,2
2017-06-23 10:30;57,5
2017-06-23 10:45;73,9
2017-06-23 11:00;75,9
2017-06-23 11:15;64,5
2017-06-23 11:30;68,4
2017-06-23 11:45;69
2017-06-23 12:00;69,2
2017-06-23 12:15;73,05
2017-06-23 12:30;71,3
2017-06-23 12:45;65,8
2017-06-23 13:00;72,65
2017-06-23 13:15;69
2017-06-23 13:30;67
2017-06-23 13:45;67,9
2017-06-23 14:00;73,8
2017-06-23 14:15;73,6
2017-06-23 14:30;67,25
2017-06-23 14:45;73,65
2017-06-23 15:00;74,05
2017-06-23 15:15;65,65
2017-06-23 15:30;67,65
2017-06-23 15:45;75,65
2017-06-23 16:00;81,15
2017-06-23 16:15;63,25
2017-06-23 16:30;60,7
2017-06-23 16:45;55,25
2017-06-23 17:00;56,7
2017-06-23 17:15;51,3
2017-06-23 17:30;41,1
2017-06-23 17:45;39,85
2017-06-23 18:00;39,5
2017-06-23 18:15;37,2
2017-06-23 18:30;38,9
2017-06-23 18:45;37,65
2017-06-23 19:00;34,75
2017-06-23 19:15;25,9
2017-06-23 19:30;26,3
2017-06-23 19:45;26,65
2017-06-23 20:00;22,4
2017-06-23 20:15;22,7
2017-06-23 20:30;22,15
2017-06-23 20:45;22,9
2017-06-23 21:00;22,45
2017-06-23 21:15;22,25
2017-06-23 21:30;23,4
2017-06-23 21:45;21,6
2017-06-23 22:00;19,4
2017-06-23 22:15;19,4
2017-06-23 22:30;19,15
2017-06-23 22:45;19,75
2017-06-23 23:00;20,8
2017-06-23 23:15;21,65
2017-06-23 23:30;21,85
2017-06-23 23:45;20,85
2017-06-24 00:00;20,95
2017-06-24 00:15;17,2
2017-06-24 00:30;17,55
2017-06-24 00:45;18,1
2017-06-24 01:00;19,15
2017-06-24 01:15;19,9
2017-06-24 01:30;1,85
2017-06-24 01:45;1,2
2017-06-24 02:00;1,65
2017-06-24 02:15;1
2017-06-24 02:30;0,25
2017-06-24 02:45;0
2017-06-24 03:00;0
2017-06-24 03:15;0,05
2017-06-24 03:30;0
2017-06-24 03:45;0,55
2017-06-24 04:00;0,15
2017-06-24 04:15;0,05
2017-06-24 04:30;0
2017-06-24 04:45;0
2017-06-24 05:00;0,05
2017-06-24 05:15;0,4
2017-06-24 05:30;0,3
2017-06-24 05:45;1,4
2017-06-24 06:00;1,7
2017-06-24 06:15;0,8
2017-06-24 06:30;1,4
2017-06-24 06:45;1,15
2017-06-24 07:00;0,55
2017-06-24 07:15;0,65
2017-06-24 07:30;0,35
2017-06-24 07:45;0,1
2017-06-24 08:00;0,9
2017-06-24 08:15;8,25
2017-06-24 08:30;12,65
2017-06-24 08:45;8,5
2017-06-24 09:00;6,5
2017-06-24 09:15;6,7
2017-06-24 09:30;7,25
2017-06-24 09:45;5,95
2017-06-24 10:00;7,25
2017-06-24 10:15;7,6
2017-06-24 10:30;8,55
2017-06-24 10:45;7,3
2017-06-24 11:00;5,2
2017-06-24 11:15;7,3
2017-06-24 11:30;7,5
2017-06-24 11:45;8,7
2017-06-24 12:00;7,5
2017-06-24 12:15;7,2
2017-06-24 12:30;3,9
2017-06-24 12:45;3,25
2017-06-24 13:00;11,05
2017-06-24 13:15;23,8
2017-06-24 13:30;23,45
2017-06-24 13:45;23,6
2017-06-24 14:00;22,95
2017-06-24 14:15;21,6
2017-06-24 14:30;22,85
2017-06-24 14:45;21,95
2017-06-24 15:00;25,3
2017-06-24 15:15;26,35
2017-06-24 15:30;22,7
2017-06-24 15:45;19,25
2017-06-24 16:00;19,15
2017-06-24 16:15;20,05
2017-06-24 16:30;19,7
2017-06-24 16:45;19,65
2017-06-24 17:00;20,2
2017-06-24 17:15;21,25
2017-06-24 17:30;20,45
2017-06-24 17:45;21,1
2017-06-24 18:00;21,55
2017-06-24 18:15;22,2
2017-06-24 18:30;22,85
2017-06-24 18:45;23,8
2017-06-24 19:00;23,45
2017-06-24 19:15;24,1
2017-06-24 19:30;26,15
2017-06-24 19:45;27,4
2017-06-24 20:00;26,45
2017-06-24 20:15;25,4
2017-06-24 20:30;27,25
2017-06-24 20:45;27
2017-06-24 21:00;23,35
2017-06-24 21:15;20
2017-06-24 21:30;21
2017-06-24 21:45;21,45
2017-06-24 22:00;20,25
2017-06-24 22:15;18,5
2017-06-24 22:30;20,45
2017-06-24 22:45;17,95
2017-06-24 23:00;18,4
2017-06-24 23:15;18,9
2017-06-24 23:30;18,5
2017-06-24 23:45;16,75
2017-06-25 00:00;17,85
2017-06-25 00:15;15,35
2017-06-25 00:30;16,45
2017-06-25 00:45;19,5
2017-06-25 01:00;19,75
2017-06-25 01:15;20,55
2017-06-25 01:30;19,25
2017-06-25 01:45;22,05
2017-06-25 02:00;23,5
2017-06-25 02:15;23,05
2017-06-25 02:30;23,65
2017-06-25 02:45;20,3
2017-06-25 03:00;18,9
2017-06-25 03:15;22,45
2017-06-25 03:30;22,25
2017-06-25 03:45;22,1
2017-06-25 04:00;22,7
2017-06-25 04:15;23
2017-06-25 04:30;24,7
2017-06-25 04:45;25,85
2017-06-25 05:00;21,95
2017-06-25 05:15;8,15
2017-06-25 05:30;5,6
2017-06-25 05:45;6,15
2017-06-25 06:00;7,2
2017-06-25 06:15;7,85
2017-06-25 06:30;8,2
2017-06-25 06:45;7,8
2017-06-25 07:00;6,85
2017-06-25 07:15;7,9
2017-06-25 07:30;8
2017-06-25 07:45;9,9
2017-06-25 08:00;7,7
2017-06-25 08:15;7,75
2017-06-25 08:30;7,7
2017-06-25 08:45;6,4
2017-06-25 09:00;12,25
2017-06-25 09:15;13,6
2017-06-25 09:30;14,6
2017-06-25 09:45;25,85
2017-06-25 10:00;22,9
2017-06-25 10:15;22,5
2017-06-25 10:30;22,05
2017-06-25 10:45;20
2017-06-25 11:00;21,2
2017-06-25 11:15;21,8
2017-06-25 11:30;19,4
2017-06-25 11:45;18,7
2017-06-25 12:00;4,2
2017-06-25 12:15;2
2017-06-25 12:30;24,55
2017-06-25 12:45;14,95
2017-06-25 13:00;16,3
2017-06-25 13:15;16,05
2017-06-25 13:30;18,15
2017-06-25 13:45;18,3
2017-06-25 14:00;17,45
2017-06-25 14:15;18,9
2017-06-25 14:30;17,6
2017-06-25 14:45;18,35
2017-06-25 15:00;20,95
2017-06-25 15:15;20,55
2017-06-25 15:30;22,3
2017-06-25 15:45;21,6
2017-06-25 16:00;21
2017-06-25 16:15;20,25
2017-06-25 16:30;20,6
2017-06-25 16:45;20
2017-06-25 17:00;21,95
2017-06-25 17:15;17
2017-06-25 17:30;19,65
2017-06-25 17:45;17,85
2017-06-25 18:00;18,95
2017-06-25 18:15;19,2
2017-06-25 18:30;20,55
2017-06-25 18:45;18,3
2017-06-25 19:00;19,25
2017-06-25 19:15;16,65
2017-06-25 19:30;21,85
2017-06-25 19:45;22
2017-06-25 20:00;22,85
2017-06-25 20:15;22,65
2017-06-25 20:30;22,65
2017-06-25 20:45;22,5
2017-06-25 21:00;21,6
2017-06-25 21:15;17,8
2017-06-25 21:30;17,85
2017-06-25 21:45;18,8
2017-06-25 22:00;19,15
2017-06-25 22:15;18,9
2017-06-25 22:30;18,25
2017-06-25 22:45;17,25
2017-06-25 23:00;12,75
2017-06-25 23:15;11,85
2017-06-25 23:30;11,25
2017-06-25 23:45;10,5

